H1 CPF 2 NER 2024 3 14 9 074 01 glonass139 H2 1808601 9139 43687 2024 3 14 0 0 0 2024 3 17 23 45 0 900 1 1 0 0 0 1 H9 10 0 60383 0.00000 0 -15568957.120 -19928578.331 -3304795.634 10 0 60383 900.00000 0 -15245666.260 -19404564.850 -6435490.429 10 0 60383 1800.00000 0 -14607156.610 -18649545.183 -9441079.855 10 0 60383 2700.00000 0 -13636252.469 -17717481.398 -12263112.796 10 0 60383 3600.00000 0 -12328194.836 -16666475.160 -14846697.689 10 0 60383 4500.00000 0 -10691091.209 -15556224.388 -17141575.111 10 0 60383 5400.00000 0 -8745831.592 -14445430.653 -19103099.698 10 0 60383 6300.00000 0 -6525472.839 -13389267.102 -20693111.953 10 0 60383 7200.00000 0 -4074115.910 -12437013.990 -21880682.846 10 0 60383 8100.00000 0 -1445321.974 -11629961.659 -22642716.698 10 0 60383 9000.00000 0 1299867.468 -10999669.311 -22964400.808 10 0 60383 9900.00000 0 4095224.541 -10566652.808 -22839493.155 10 0 60383 10800.00000 0 6871848.145 -10339556.444 -22270442.830 10 0 60383 11700.00000 0 9560792.189 -10314843.236 -21268340.925 10 0 60383 12600.00000 0 12095700.004 -10477016.289 -19852702.950 10 0 60383 13500.00000 0 14415335.723 -10799361.442 -18051086.994 10 0 60383 14400.00000 0 16465907.780 -11245179.334 -15898555.047 10 0 60383 15300.00000 0 18203088.187 -11769454.376 -13436987.955 10 0 60383 16200.00000 0 19593644.099 -12320889.635 -10714267.382 10 0 60383 17100.00000 0 20616614.332 -12844221.126 -7783340.798 10 0 60383 18000.00000 0 21263982.607 -13282713.128 -4701187.964 10 0 60383 18900.00000 0 21540820.508 -13580728.539 -1527709.359 10 0 60383 19800.00000 0 21464895.418 -13686265.051 1675441.399 10 0 60383 20700.00000 0 21065761.239 -13553349.473 4846057.908 10 0 60383 21600.00000 0 20383371.451 -13144188.593 7922590.364 10 0 60383 22500.00000 0 19466274.040 -12430985.410 10845340.117 10 0 60383 23400.00000 0 18369465.269 -11397343.757 13557616.022 10 0 60383 24300.00000 0 17151993.291 -10039201.827 16006830.204 10 0 60383 25200.00000 0 15874412.799 -8365254.912 18145512.324 10 0 60383 26100.00000 0 14596197.740 -6396849.127 19932223.195 10 0 60383 27000.00000 0 13373220.458 -4167349.885 21332350.810 10 0 60383 27900.00000 0 12255402.479 -1721010.650 22318774.223 10 0 60383 28800.00000 0 11284634.684 888611.876 22872383.284 10 0 60383 29700.00000 0 10493053.145 3600631.387 22982444.911 10 0 60383 30600.00000 0 9901741.975 6349113.753 22646809.390 10 0 60383 31500.00000 0 9519916.787 9065573.586 21871952.971 10 0 60383 32400.00000 0 9344622.392 11681583.434 20672855.875 10 0 60383 33300.00000 0 9360957.070 14131388.650 19072717.731 10 0 60383 34200.00000 0 9542813.932 16354420.534 17102515.247 10 0 60383 35100.00000 0 9854108.353 18297604.298 14800409.896 10 0 60383 36000.00000 0 10250440.141 19917366.535 12211016.055 10 0 60383 36900.00000 0 10681120.757 21181259.011 9384542.942 10 0 60383 37800.00000 0 11091480.415 22069131.210 6375826.136 10 0 60383 38700.00000 0 11425357.772 22573802.727 3243266.913 10 0 60383 39600.00000 0 11627666.905 22701207.274 47699.729 10 0 60383 40500.00000 0 11646932.654 22470002.237 -3148790.187 10 0 60383 41400.00000 0 11437686.382 21910660.180 -6284075.864 10 0 60383 42300.00000 0 10962619.853 21064080.609 -9297200.240 10 0 60383 43200.00000 0 10194404.945 19979780.612 -12129566.270 10 0 60383 44100.00000 0 9117100.907 18713740.900 -14726081.699 10 0 60383 45000.00000 0 7727088.303 17325998.334 -17036235.587 10 0 60383 45900.00000 0 6033488.739 15878086.755 -19015085.181 10 0 60383 46800.00000 0 4058051.225 14430434.214 -20624133.599 10 0 60383 47700.00000 0 1834508.536 13039826.418 -21832081.069 10 0 60383 48600.00000 0 -592570.725 11757043.248 -22615435.121 10 0 60383 49500.00000 0 -3169387.476 10624767.640 -22958967.968 10 0 60383 50400.00000 0 -5834908.766 9675854.536 -22856012.325 10 0 60383 51300.00000 0 -8523173.194 8932032.217 -22308590.112 10 0 60383 52200.00000 0 -11165809.637 8403090.022 -21327371.663 10 0 60383 53100.00000 0 -13694664.922 8086585.916 -19931466.314 10 0 60383 54000.00000 0 -16044431.373 7968085.376 -18148048.487 10 0 60383 54900.00000 0 -18155165.214 8021920.691 -16011826.488 10 0 60383 55800.00000 0 -19974591.171 8212437.776 -13564364.390 10 0 60383 56700.00000 0 -21460097.587 8495677.034 -10853270.184 10 0 60383 57600.00000 0 -22580339.267 8821416.409 -7931266.118 10 0 60383 58500.00000 0 -23316381.672 9135489.506 -4855159.569 10 0 60383 59400.00000 0 -23662339.410 9382279.945 -1684734.794 10 0 60383 60300.00000 0 -23625483.231 9507285.792 1518412.453 10 0 60383 61200.00000 0 -23225812.126 9459644.897 4692074.245 10 0 60383 62100.00000 0 -22495109.637 9194513.868 7774640.013 10 0 60383 63000.00000 0 -21475525.135 8675199.607 10706292.419 10 0 60383 63900.00000 0 -20217740.659 7874953.058 13430166.142 10 0 60383 64800.00000 0 -18778801.106 6778349.112 15893447.144 10 0 60383 65700.00000 0 -17219699.338 5382194.173 18048391.418 10 0 60383 66600.00000 0 -15602817.717 3695922.779 19853243.959 10 0 60383 67500.00000 0 -13989333.114 1741465.969 21273040.934 10 0 60383 68400.00000 0 -12436693.565 -447403.869 22280280.353 10 0 60383 69300.00000 0 -10996271.409 -2826225.358 22855449.108 10 0 60383 70200.00000 0 -9711290.095 -5341450.810 22987396.957 10 0 60383 71100.00000 0 -8615110.284 -7932433.925 22673550.777 10 0 60383 72000.00000 0 -7729945.876 -10533721.262 21919965.221 10 0 60383 72900.00000 0 -7066062.746 -13077553.747 20741208.768 10 0 60383 73800.00000 0 -6621492.979 -15496475.712 19160087.021 10 0 60383 74700.00000 0 -6382276.087 -17725944.231 17207207.947 10 0 60383 75600.00000 0 -6323216.790 -19706831.283 14920396.668 10 0 60383 76500.00000 0 -6409127.441 -21387715.305 12343970.159 10 0 60383 77400.00000 0 -6596502.853 -22726867.038 9527885.014 10 0 60383 78300.00000 0 -6835557.014 -23693846.935 6526773.988 10 0 60383 79200.00000 0 -7072535.746 -24270647.285 3398889.411 10 0 60383 80100.00000 0 -7252207.465 -24452331.000 204973.692 10 0 60383 81000.00000 0 -7320426.342 -24247139.989 -2992921.154 10 0 60383 81900.00000 0 -7226658.822 -23676068.329 -6132641.804 10 0 60383 82800.00000 0 -6926365.671 -22771917.940 -9153145.714 10 0 60383 83700.00000 0 -6383137.715 -21577876.445 -11995692.862 10 0 60383 84600.00000 0 -5570493.604 -20145677.075 -14604993.289 10 0 60383 85500.00000 0 -4473262.264 -18533418.215 -16930287.500 10 0 60384 0.00000 0 -3088490.341 -16803134.680 -18926338.036 10 0 60384 900.00000 0 -1425834.095 -15018222.156 -20554313.625 10 0 60384 1800.00000 0 492580.268 -13240825.520 -21782545.905 10 0 60384 2700.00000 0 2632825.792 -11529297.730 -22587147.587 10 0 60384 3600.00000 0 4950344.928 -9935838.121 -22952477.364 10 0 60384 4500.00000 0 7391573.437 -8504408.000 -22871443.819 10 0 60384 5400.00000 0 9895950.987 -7269010.657 -22345642.411 10 0 60384 6300.00000 0 12398235.293 -6252407.223 -21385323.000 10 0 60384 7200.00000 0 14831023.779 -5465321.424 -20009188.626 10 0 60384 8100.00000 0 17127378.063 -4906165.610 -18244029.488 10 0 60384 9000.00000 0 19223442.127 -4561298.461 -16124199.208 10 0 60384 9900.00000 0 21060945.154 -4405802.353 -13690943.589 10 0 60384 10800.00000 0 22589484.782 -4404746.448 -10991594.944 10 0 60384 11700.00000 0 23768495.678 -4514881.048 -8078647.782 10 0 60384 12600.00000 0 24568821.393 -4686690.556 -5008734.095 10 0 60384 13500.00000 0 24973824.258 -4866717.245 -1841518.514 10 0 60384 14400.00000 0 24979987.421 -5000056.600 1361464.758 10 0 60384 15300.00000 0 24596984.568 -5032917.883 4538010.113 10 0 60384 16200.00000 0 23847215.288 -4915140.887 7626450.063 10 0 60384 17100.00000 0 22764826.487 -4602561.908 10566852.297 10 0 60384 18000.00000 0 21394261.782 -4059128.491 13302180.785 10 0 60384 18900.00000 0 19788400.458 -3258673.305 15779398.462 10 0 60384 19800.00000 0 18006364.509 -2186272.033 17950490.401 10 0 60384 20700.00000 0 16111085.829 -839127.681 19773388.111 10 0 60384 21600.00000 0 14166735.293 773056.305 21212777.829 10 0 60384 22500.00000 0 12236120.726 2628230.504 22240777.968 10 0 60384 23400.00000 0 10378161.765 4692675.954 22837473.463 10 0 60384 24300.00000 0 8645546.019 6922175.424 22991297.441 10 0 60384 25200.00000 0 7082663.192 9263631.969 22699253.423 10 0 60384 26100.00000 0 5723902.207 11657068.763 21966974.045 10 0 60384 27000.00000 0 4592381.224 14037928.424 20808615.157 10 0 60384 27900.00000 0 3699162.603 16339577.639 19246587.005 10 0 60384 28800.00000 0 3042984.767 18495914.107 17311127.076 10 0 60384 29700.00000 0 2610521.586 20443968.347 15039722.057 10 0 60384 30600.00000 0 2377157.958 22126392.752 12476389.127 10 0 60384 31500.00000 0 2308248.742 23493734.460 9670829.614 10 0 60384 32400.00000 0 2360807.880 24506397.265 6677470.606 10 0 60384 33300.00000 0 2485556.340 25136210.332 3554412.495 10 0 60384 34200.00000 0 2629242.183 25367537.651 362302.580 10 0 60384 35100.00000 0 2737134.325 25197881.202 -2836843.425 10 0 60384 36000.00000 0 2755583.923 24637951.990 -5980848.840 10 0 60384 36900.00000 0 2634544.209 23711205.477 -9008588.493 10 0 60384 37800.00000 0 2329941.153 22452860.550 -11861182.006 10 0 60384 38700.00000 0 1805793.452 20908443.025 -14483144.073 10 0 60384 39600.00000 0 1035990.938 19131914.789 -16823468.713 10 0 60384 40500.00000 0 5654.896 17183467.197 -18836625.874 10 0 60384 41400.00000 0 -1287978.531 15127071.412 -20483450.697 10 0 60384 42300.00000 0 -2835190.442 13027888.587 -21731907.902 10 0 60384 43200.00000 0 -4613943.605 10949648.431 -22557716.416 10 0 60384 44100.00000 0 -6590573.581 8952105.912 -22944822.201 10 0 60384 45000.00000 0 -8720978.646 7088682.299 -22885710.214 10 0 60384 45900.00000 0 -10952259.697 5404388.827 -22381549.624 10 0 60384 46800.00000 0 -13224742.343 3934119.182 -21442169.609 10 0 60384 47700.00000 0 -15474297.288 2701381.445 -20085866.295 10 0 60384 48600.00000 0 -17634862.506 1717521.506 -18339044.618 10 0 60384 49500.00000 0 -19641062.207 981469.296 -16235702.085 10 0 60384 50400.00000 0 -21430813.266 480017.125 -13816764.458 10 0 60384 51300.00000 0 -22947810.335 188617.037 -11129286.322 10 0 60384 52200.00000 0 -24143785.712 72662.142 -8225532.185 10 0 60384 53100.00000 0 -24980449.523 89196.543 -5161956.244 10 0 60384 54000.00000 0 -25431029.091 188980.326 -1998100.977 10 0 60384 54900.00000 0 -25481343.330 318821.202 1204563.592 10 0 60384 55800.00000 0 -25130367.487 424073.128 4383836.871 10 0 60384 56700.00000 0 -24390265.179 451195.388 7477997.218 10 0 60384 57600.00000 0 -23285886.960 350263.198 10427000.141 10 0 60384 58500.00000 0 -21853757.144 77323.192 13173641.681 10 0 60384 59400.00000 0 -20140591.935 -403506.084 15664664.439 10 0 60384 60300.00000 0 -18201411.330 -1118277.600 17851785.090 10 0 60384 61200.00000 0 -16097324.022 -2081877.460 19692623.933 10 0 60384 62100.00000 0 -13893077.792 -3297161.378 21151519.224 10 0 60384 63000.00000 0 -11654477.226 -4754602.724 22200211.342 10 0 60384 63900.00000 0 -9445775.810 -6432467.610 22818384.413 10 0 60384 64800.00000 0 -7327150.064 -8297510.543 22994055.655 10 0 60384 65700.00000 0 -5352359.796 -10306162.748 22723805.549 10 0 60384 66600.00000 0 -3566690.651 -12406164.812 22012844.642 10 0 60384 67500.00000 0 -2005263.380 -14538576.987 20874915.729 10 0 60384 68400.00000 0 -691779.083 -16640084.772 19332032.954 10 0 60384 69300.00000 0 362248.229 -18645504.972 17414062.271 10 0 60384 70200.00000 0 1157740.610 -20490388.837 15158150.595 10 0 60384 71100.00000 0 1707776.919 -22113614.543 12608013.712 10 0 60384 72000.00000 0 2036797.576 -23459861.196 9813095.850 10 0 60384 72900.00000 0 2179327.104 -24481861.087 6827616.404 10 0 60384 73800.00000 0 2178268.585 -25142335.719 3709521.635 10 0 60384 74700.00000 0 2082842.271 -25415534.021 519361.411 10 0 60384 75600.00000 0 1946255.799 -25288307.534 -2680887.257 10 0 60384 76500.00000 0 1823205.073 -24760676.656 -5829026.836 10 0 60384 77400.00000 0 1767312.234 -23845863.420 -8863852.083 10 0 60384 78300.00000 0 1828610.025 -22569788.663 -11726344.882 10 0 60384 79200.00000 0 2051180.035 -20970054.196 -14360827.234 10 0 60384 80100.00000 0 2471045.879 -19094452.267 -16716049.292 10 0 60384 81000.00000 0 3114411.590 -16999064.640 -18746190.794 10 0 60384 81900.00000 0 3996320.878 -14746030.842 -20411756.040 10 0 60384 82800.00000 0 5119795.043 -12401079.022 -21680344.786 10 0 60384 83700.00000 0 6475487.082 -10030922.727 -22527284.039 10 0 60384 84600.00000 0 8041867.687 -7700632.273 -22936108.560 10 0 60384 85500.00000 0 9785936.349 -5471090.407 -22898880.857 10 0 60385 0.00000 0 11664428.512 -3396638.239 -22416344.698 10 0 60385 900.00000 0 13625469.979 -1523008.116 -21497908.973 10 0 60385 1800.00000 0 15610607.373 114368.300 -20161463.040 10 0 60385 2700.00000 0 17557133.430 1491610.741 -18433026.341 10 0 60385 3600.00000 0 19400607.632 2597145.927 -16346239.636 10 0 60385 4500.00000 0 21077467.750 3431938.911 -13941707.576 10 0 60385 5400.00000 0 22527622.814 4009191.767 -11266205.483 10 0 60385 6300.00000 0 23696918.827 4353523.904 -8371765.847 10 0 60385 7200.00000 0 24539373.798 4499670.038 -5314662.577 10 0 60385 8100.00000 0 25019088.310 4490752.272 -2154313.095 10 0 60385 9000.00000 0 25111751.529 4376200.619 1047879.980 10 0 60385 9900.00000 0 24805679.571 4209411.077 4229724.515 10 0 60385 10800.00000 0 24102342.918 4045241.295 7329448.247 10 0 60385 11700.00000 0 23016361.102 3937450.573 10286898.009 10 0 60385 12600.00000 0 21574965.266 3936193.002 13044705.292 10 0 60385 13500.00000 0 19816951.491 4085670.057 15549395.541 10 0 60385 14400.00000 0 17791168.975 4422042.007 17752419.949 10 0 60385 15300.00000 0 15554606.378 4971686.319 19611090.226 10 0 60385 16200.00000 0 13170156.133 5749876.564 21089398.931 10 0 60385 17100.00000 0 10704149.504 6759937.580 22158710.337 10 0 60385 18000.00000 0 8223764.463 7992912.738 22798309.282 10 0 60385 18900.00000 0 5794413.265 9427757.848 22995798.170 10 0 60385 19800.00000 0 3477217.235 11032054.435 22747335.053 10 0 60385 20700.00000 0 1326672.497 12763213.590 22057708.499 10 0 60385 21600.00000 0 -611397.636 14570121.299 20940247.823 10 0 60385 22500.00000 0 -2301519.718 16395157.885 19416570.123 10 0 60385 23400.00000 0 -3719807.977 18176508.427 17516168.400 10 0 60385 24300.00000 0 -4854712.308 19850668.850 15275847.937 10 0 60385 25200.00000 0 -5707246.023 21355043.797 12739020.897 10 0 60385 26100.00000 0 -6290684.503 22630528.222 9954871.898 10 0 60385 27000.00000 0 -6629747.911 23623964.802 6977409.888 10 0 60385 27900.00000 0 -6759302.757 24290374.054 3864424.084 10 0 60385 28800.00000 0 -6722637.388 24594863.085 676363.906 10 0 60385 29700.00000 0 -6569384.584 24514132.083 -2524835.416 10 0 60385 30600.00000 0 -6353179.526 24037514.328 -5676958.549 10 0 60385 31500.00000 0 -6129152.785 23167504.998 -8718723.148 10 0 60385 32400.00000 0 -5951365.178 21919755.558 -11590976.178 10 0 60385 33300.00000 0 -5870293.891 20322533.056 -14237849.549 10 0 60385 34200.00000 0 -5930477.222 18415666.281 -16607851.913 10 0 60385 35100.00000 0 -6168418.577 16249022.400 -18654874.887 10 0 60385 36000.00000 0 -6610839.343 13880577.486 -20339093.753 10 0 60385 36900.00000 0 -7273355.445 11374161.395 -21627744.859 10 0 60385 37800.00000 0 -8159634.396 8796971.096 -22495764.581 10 0 60385 38700.00000 0 -9261069.308 6216956.063 -22926277.482 10 0 60385 39600.00000 0 -10556984.429 3700184.630 -22910924.308 10 0 60385 40500.00000 0 -12015364.344 1308300.781 -22450023.637 10 0 60385 41400.00000 0 -13594076.871 -903823.109 -21552564.182 10 0 60385 42300.00000 0 -15242538.854 -2890140.382 -20236028.002 10 0 60385 43200.00000 0 -16903755.359 -4615106.257 -18526048.123 10 0 60385 44100.00000 0 -18516646.973 -6054907.191 -16455907.215 10 0 60385 45000.00000 0 -20018567.678 -7198193.300 -14065887.115 10 0 60385 45900.00000 0 -21347907.617 -8046284.682 -11402481.852 10 0 60385 46800.00000 0 -22446671.377 -8612844.570 -8517489.616 10 0 60385 47700.00000 0 -23262923.331 -8923034.668 -5467001.557 10 0 60385 48600.00000 0 -23752997.119 -9012189.907 -2310307.409 10 0 60385 49500.00000 0 -23883376.270 -8924070.015 891260.368 10 0 60385 50400.00000 0 -23632166.833 -8708763.116 4075520.962 10 0 60385 51300.00000 0 -22990100.154 -8420331.141 7180654.417 10 0 60385 52200.00000 0 -21961023.750 -8114297.503 10146401.860 10 0 60385 53100.00000 0 -20561859.809 -7845083.944 12915233.171 10 0 60385 54000.00000 0 -18822033.202 -7663505.267 15433459.473 10 0 60385 54900.00000 0 -16782393.014 -7614427.953 17652269.123 10 0 60385 55800.00000 0 -14493672.640 -7734691.456 19528667.592 10 0 60385 56700.00000 0 -12014552.502 -8051379.706 21026303.735 10 0 60385 57600.00000 0 -9409405.653 -8580515.493 22116167.293 10 0 60385 58500.00000 0 -6745819.413 -9326232.659 22777144.937 10 0 60385 59400.00000 0 -4091995.155 -10280461.032 22996424.926 10 0 60385 60300.00000 0 -1514133.059 -11423137.786 22769743.117 10 0 60385 61200.00000 0 926090.779 -12722937.049 22101465.940 10 0 60385 62100.00000 0 3173851.501 -14138488.136 21004508.728 10 0 60385 63000.00000 0 5183211.539 -15620032.528 19500090.709 10 0 60385 63900.00000 0 6918782.123 -17111451.369 17617330.814 10 0 60385 64800.00000 0 8356942.146 -18552579.729 15392691.300 10 0 60385 65700.00000 0 9486564.472 -19881711.659 12869279.049 10 0 60385 66600.00000 0 10309220.064 -21038191.690 10096017.135 10 0 60385 67500.00000 0 10838851.965 -21964984.438 7126701.900 10 0 60385 68400.00000 0 11100933.311 -22611114.383 4018963.146 10 0 60385 69300.00000 0 11131145.172 -22933872.892 833147.323 10 0 60385 70200.00000 0 10973630.366 -22900698.974 -2368854.738 10 0 60385 71100.00000 0 10678897.382 -22490653.638 -5524812.564 10 0 60385 72000.00000 0 10301463.510 -21695424.686 -8573369.379 10 0 60385 72900.00000 0 9897337.467 -20519818.445 -11455239.858 10 0 60385 73800.00000 0 9521448.757 -18981716.570 -14114368.382 10 0 60385 74700.00000 0 9225133.300 -17111498.655 -16499024.563 10 0 60385 75600.00000 0 9053782.512 -14950953.951 -18562814.215 10 0 60385 76500.00000 0 9044756.068 -12551727.031 -20265585.716 10 0 60385 77400.00000 0 9225647.303 -9973361.877 -21574213.866 10 0 60385 78300.00000 0 9612975.227 -7281025.697 -22463245.971 10 0 60385 79200.00000 0 10211358.986 -4543007.095 -22915397.621 10 0 60385 80100.00000 0 11013210.142 -1828092.596 -22921888.685 10 0 60385 81000.00000 0 11998956.257 797069.496 -22482613.156 10 0 60385 81900.00000 0 13137786.794 3270508.635 -21606139.699 10 0 60385 82800.00000 0 14388890.317 5537269.696 -20309542.995 10 0 60385 83700.00000 0 15703131.189 7551452.173 -18618069.240 10 0 60385 84600.00000 0 17025095.449 9277866.796 -16564642.279 10 0 60385 85500.00000 0 18295419.827 10693241.538 -14189220.041 10 0 60386 0.00000 0 19453305.787 11786927.836 -11538014.056 10 0 60386 900.00000 0 20439113.250 12561079.472 -8662585.895 10 0 60386 1800.00000 0 21196923.069 13030296.798 -5618841.953 10 0 60386 2700.00000 0 21676962.178 13220754.857 -2465941.714 10 0 60386 3600.00000 0 21837787.484 13168852.190 734855.360 10 0 60386 4500.00000 0 21648136.936 12919439.455 3921382.801 10 0 60386 5400.00000 0 21088369.601 12523703.812 7031776.085 10 0 60386 6300.00000 0 20151434.045 12036799.526 10005673.758 10 0 60386 7200.00000 0 18843324.226 11515325.661 12785387.135 10 0 60386 8100.00000 0 17183003.703 11014757.904 15317015.931 10 0 60386 9000.00000 0 15201801.164 10586943.134 17551488.398 10 0 60386 9900.00000 0 12942302.369 10277762.400 19445506.286 10 0 60386 10800.00000 0 10456784.392 10125060.558 20962377.019 10 0 60386 11700.00000 0 7805256.836 10156929.425 22072717.784 10 0 60386 12600.00000 0 5053190.825 10390416.334 22755018.742 10 0 60386 13500.00000 0 2269029.144 10830712.169 22996055.275 10 0 60386 14400.00000 0 -478420.248 11470852.945 22791141.888 10 0 60386 15300.00000 0 -3122600.450 12291947.692 22144223.217 10 0 60386 16200.00000 0 -5601724.396 13263923.616 21067800.438 10 0 60386 17100.00000 0 -7861092.997 14346758.008 19582694.208 10 0 60386 18000.00000 0 -9855117.576 15492146.181 17717648.166 10 0 60386 18900.00000 0 -11548963.611 16645536.401 15508779.869 10 0 60386 19800.00000 0 -12919748.235 17748447.368 12998888.843 10 0 60386 20700.00000 0 -13957242.255 18740971.605 10236634.246 10 0 60386 21600.00000 0 -14664047.905 19564360.010 7275597.211 10 0 60386 22500.00000 0 -15055245.331 20163578.979 4173245.379 10 0 60386 23400.00000 0 -15157523.015 20489732.146 989819.376 10 0 60386 24300.00000 0 -15007829.068 20502244.159 -2212837.271 10 0 60386 25200.00000 0 -14651600.628 20170713.488 -5372481.876 10 0 60386 26100.00000 0 -14140646.508 19476355.040 -8427686.121 10 0 60386 27000.00000 0 -13530773.075 18412970.476 -11319035.209 10 0 60386 27900.00000 0 -12879254.316 16987404.004 -13990288.672 10 0 60386 28800.00000 0 -12242253.688 15219463.129 -16389479.571 10 0 60386 29700.00000 0 -11672307.445 13141306.482 -18469930.166 10 0 60386 30600.00000 0 -11215976.417 10796323.269 -20191163.911 10 0 60386 31500.00000 0 -10911766.046 8237550.414 -21519695.751 10 0 60386 32400.00000 0 -10788402.973 5525692.796 -22429685.304 10 0 60386 33300.00000 0 -10863541.283 2726828.655 -22903440.256 10 0 60386 34200.00000 0 -11142953.263 -90104.645 -22931760.328 10 0 60386 35100.00000 0 -11620238.973 -2855940.188 -22514115.286 10 0 60386 36000.00000 0 -12277066.988 -5503917.414 -21658653.713 10 0 60386 36900.00000 0 -13083936.235 -7972215.114 -20382042.472 10 0 60386 37800.00000 0 -14001426.792 -10206276.670 -18709140.066 10 0 60386 38700.00000 0 -14981886.945 -12160831.450 -16672510.269 10 0 60386 39600.00000 0 -15971485.232 -13801528.935 -14311785.497 10 0 60386 40500.00000 0 -16912540.844 -15106118.476 -11672892.383 10 0 60386 41400.00000 0 -17746033.838 -16065126.599 -8807154.692 10 0 60386 42300.00000 0 -18414189.005 -16682004.918 -5770291.280 10 0 60386 43200.00000 0 -18863024.061 -16972743.965 -2621328.905 10 0 60386 44100.00000 0 -19044754.305 -16964970.749 578548.574 10 0 60386 45000.00000 0 -18919951.988 -16696569.555 3767191.740 10 0 60386 45900.00000 0 -18459369.063 -16213885.509 6882694.302 10 0 60386 46800.00000 0 -17645346.240 -15569587.874 9864595.076 10 0 60386 47700.00000 0 -16472748.820 -14820284.165 12655049.686 10 0 60386 48600.00000 0 -14949389.733 -14023986.357 15199949.235 10 0 60386 49500.00000 0 -13095921.743 -13237536.347 17449964.528 10 0 60386 50400.00000 0 -10945202.940 -12514099.162 19361496.021 10 0 60386 51300.00000 0 -8541161.568 -11900829.208 20897511.813 10 0 60386 52200.00000 0 -5937206.803 -11436807.261 22028258.274 10 0 60386 53100.00000 0 -3194250.856 -11151334.383 22731830.377 10 0 60386 54000.00000 0 -378423.536 -11062653.870 22994591.523 10 0 60386 54900.00000 0 2441427.036 -11177154.441 22811435.345 10 0 60386 55800.00000 0 5196345.160 -11489087.875 22185884.779 10 0 60386 56700.00000 0 7819882.832 -11980812.975 21130026.574 10 0 60386 57600.00000 0 10250612.444 -12623555.898 19664282.214 10 0 60386 58500.00000 0 12434433.800 -13378655.473 17817019.128 10 0 60386 59400.00000 0 14326580.701 -14199241.861 15624008.932 10 0 60386 60300.00000 0 15893244.491 -15032278.782 13127742.243 10 0 60386 61200.00000 0 17112747.541 -15820884.038 10376612.412 10 0 60386 62100.00000 0 17976218.187 -16506831.155 7423983.144 10 0 60386 63000.00000 0 18487739.210 -17033126.957 4327157.401 10 0 60386 63900.00000 0 18663963.906 -17346556.245 1146267.220 10 0 60386 64800.00000 0 18533216.089 -17400085.781 -2056894.111 10 0 60386 65700.00000 0 18134112.166 -17155025.274 -5220074.704 10 0 60386 66600.00000 0 17513763.663 -16582853.073 -8281777.704 10 0 60386 67500.00000 0 16725636.419 -15666628.198 -11182461.754 10 0 60386 68400.00000 0 15827157.291 -14401927.734 -13865704.308 10 0 60386 69300.00000 0 14877169.984 -12797268.578 -16279304.443 10 0 60386 70200.00000 0 13933347.973 -10873994.392 -18376303.209 10 0 60386 71100.00000 0 13049674.272 -8665631.088 -20115901.209 10 0 60386 72000.00000 0 12274094.868 -6216736.734 -21464255.308 10 0 60386 72900.00000 0 11646445.127 -3581292.966 -22395138.871 10 0 60386 73800.00000 0 11196736.794 -820704.254 -22890452.759 10 0 60386 74700.00000 0 10943877.841 1998512.170 -22940577.247 10 0 60386 75600.00000 0 10894879.006 4807250.025 -22544558.216 10 0 60386 76500.00000 0 11044580.263 7536446.774 -21710124.149 10 0 60386 77400.00000 0 11375908.447 10119716.358 -20453533.736 10 0 60386 78300.00000 0 11860654.850 12495872.776 -18799257.119 10 0 60386 79200.00000 0 12460739.609 14611240.021 -16779497.006 10 0 60386 80100.00000 0 13129909.171 16421652.752 -14433558.997 10 0 60386 81000.00000 0 13815794.741 17894065.069 -11807083.445 10 0 60386 81900.00000 0 14462244.410 19007701.185 -8951153.876 10 0 60386 82800.00000 0 15011829.969 19754700.983 -5921299.564 10 0 60386 83700.00000 0 15408422.066 20140234.724 -2776411.996 10 0 60386 84600.00000 0 15599724.447 20182083.513 422403.339 10 0 60386 85500.00000 0 15539659.800 19909704.576 3613016.991 99